EHI
0 0 0 0 0 0 0 0 0 0 0 0 0 1 1 1 1 1 1 2 4 8 14 20 25 30 33 30 26 22 16 14 13 12 10 10 9 7 4 2 2 2 1 0 0 0 0 0 0
0 0 0 0 0 0 0 0 0 0 0 0 1 2 2 3 3 2 2 4 7 12 16 20 25 30 32 30 26 22 18 14 12 10 9 8 8 6 3 1 1 1 0 0 0 0 0 0 0
0 0 0 0 0 0 0 0 0 0 0 0 1 2 3 4 4 3 4 7 11 17 20 22 26 30 31 30 27 24 21 16 11 8 8 7 7 4 2 0 0 0 0 0 0 0 0 0 0
0 0 0 0 0 0 0 0 0 0 0 0 1 2 3 3 5 7 10 13 17 21 24 25 28 32 33 32 28 25 22 18 12 9 8 8 7 4 2 1 0 0 0 0 0 0 0 0 0
0 0 0 0 0 0 0 0 0 0 0 1 2 3 3 4 6 12 17 19 21 24 26 26 28 32 33 32 29 27 25 21 16 12 11 10 9 6 4 2 0 0 0 0 0 1 1 1 0
0 0 0 0 0 0 0 0 0 0 0 1 2 3 3 5 9 15 19 21 23 25 26 26 27 28 29 29 28 27 26 24 20 15 12 13 12 9 6 4 1 0 0 1 2 2 2 1 1
0 0 0 0 0 0 0 0 0 0 0 1 2 3 4 6 9 14 19 23 24 25 26 25 24 23 24 23 22 23 23 23 20 14 12 13 13 12 9 5 2 0 1 2 4 4 2 1 1
0 0 0 0 0 0 0 0 0 0 0 0 1 3 4 6 9 15 20 24 24 24 24 22 21 21 21 18 16 17 18 18 15 11 8 9 11 11 8 3 1 0 1 3 4 4 3 1 1
0 0 0 0 0 0 0 0 0 0 0 0 1 2 4 6 11 17 20 21 20 20 19 17 17 18 18 16 14 13 13 11 9 7 6 5 6 7 4 1 0 0 1 2 3 3 2 1 0
0 0 0 0 0 0 0 0 0 0 1 1 2 3 4 6 11 15 17 16 15 13 13 13 12 14 15 14 13 11 8 7 7 6 5 3 2 3 3 1 0 0 1 2 3 1 1 0 0
0 0 0 0 0 0 0 0 0 0 0 1 3 4 4 5 8 11 14 13 11 9 10 9 9 10 11 12 12 10 6 5 6 6 5 3 2 2 2 1 0 0 1 2 2 1 0 0 0
0 0 0 0 0 0 0 0 0 0 0 1 3 5 6 5 5 8 11 11 10 9 8 8 8 8 8 9 10 8 7 6 5 4 5 3 2 2 2 1 0 0 0 1 1 0 0 0 0
0 0 0 0 0 0 0 0 0 0 0 1 4 8 8 6 4 6 8 10 10 10 8 7 7 7 6 6 6 6 6 6 4 4 4 3 2 2 2 1 0 0 0 0 0 0 0 0 0
0 0 0 0 0 0 0 0 0 0 0 2 6 10 9 7 5 5 7 9 9 8 7 7 7 7 5 4 4 5 6 6 6 4 3 3 3 3 2 1 0 0 0 0 0 0 0 0 0
0 0 0 0 0 0 0 0 0 1 0 2 5 8 8 8 6 4 6 8 7 6 5 6 6 6 5 4 3 4 5 7 6 4 3 2 3 3 2 1 0 0 0 0 0 0 0 0 0
0 0 0 0 0 0 0 0 0 0 0 1 3 4 5 6 5 2 3 5 6 5 3 4 6 7 6 4 3 3 4 6 6 4 2 1 2 3 2 1 0 0 0 0 0 0 0 0 0
0 0 0 0 0 0 0 0 0 0 0 1 2 2 2 3 2 1 1 2 4 5 2 2 5 7 6 4 3 3 4 5 5 4 2 1 1 2 2 1 0 0 0 0 0 0 0 0 0
0 0 0 0 0 0 0 0 0 0 0 0 1 1 1 1 0 0 0 1 3 3 1 1 3 5 6 5 3 2 3 4 4 4 3 1 0 1 2 1 0 0 0 0 0 0 0 0 0
0 0 0 0 0 0 0 0 0 0 0 0 0 0 1 0 0 0 0 1 2 2 1 0 1 2 4 3 1 1 1 2 3 3 3 2 1 1 2 1 0 0 0 0 0 0 0 0 0
0 0 0 0 0 0 0 0 0 0 0 0 0 0 0 0 0 0 0 0 1 1 0 0 0 0 1 1 1 0 0 1 2 3 3 3 2 1 1 1 0 0 0 0 0 0 0 0 0
0 0 0 0 0 0 0 0 0 0 0 0 0 0 0 0 0 1 1 1 2 1 0 0 0 0 0 0 1 0 0 1 2 3 3 3 3 2 1 0 0 0 0 0 0 0 0 0 0
0 0 0 0 0 0 0 0 0 0 0 0 0 0 0 0 0 1 1 1 2 1 0 0 0 0 0 0 0 0 0 1 2 3 3 3 3 3 2 1 0 0 0 0 0 0 0 0 0
0 0 0 0 0 0 0 0 0 0 0 0 0 0 0 0 0 0 0 0 1 1 1 0 0 0 0 0 0 0 0 0 1 3 3 3 3 3 2 1 0 0 0 0 0 0 0 0 0
0 0 0 0 0 0 0 0 0 0 0 0 0 0 0 0 0 0 0 0 1 2 1 0 0 0 0 0 0 0 0 0 1 2 3 3 2 1 1 0 0 0 0 0 0 0 0 0 0
0 0 0 0 0 0 0 0 0 0 0 0 0 0 0 0 0 0 0 1 2 2 1 0 0 0 0 0 0 0 0 0 1 2 3 3 1 0 0 0 0 0 0 0 0 0 0 0 0
0 0 0 0 0 0 0 0 0 0 0 0 0 0 0 0 0 0 0 1 2 2 1 0 0 0 0 0 0 0 0 0 1 2 3 2 1 0 0 0 0 0 0 0 0 0 0 0 0
0 0 0 0 0 0 0 0 0 0 0 0 0 0 0 0 0 0 0 0 1 1 1 0 0 0 0 0 0 0 0 0 0 1 2 1 0 0 0 0 0 0 0 0 0 0 0 0 0
0 0 0 0 0 0 0 0 0 0 0 0 0 0 0 0 0 0 0 0 0 0 0 0 0 0 0 0 0 0 0 0 0 0 0 0 0 0 0 0 0 0 0 0 0 0 0 0 0
0 0 0 0 0 0 0 0 0 0 0 0 0 0 0 0 0 0 0 0 0 0 0 0 0 0 0 0 0 0 0 0 0 0 0 0 0 0 0 0 0 0 0 0 0 0 0 0 0
0 0 0 0 0 0 0 0 0 0 0 0 0 0 0 0 0 0 0 0 0 0 0 0 0 0 0 0 0 0 0 0 0 0 0 0 0 0 0 0 0 0 0 0 0 0 0 0 0
Wind_Speed
8 5 2 4 6 4 3 5 4 2 2 2 1 4 6 4 4 4 2 6 9 10 9 10 11 12 12 12 12 12 12 12 13 13 14 14 14 15 14 14 14 14 15 15 15 15 15 15 15
4 2 4 5 5 3 5 5 5 5 4 1 2 3 5 4 3 5 4 5 10 9 8 9 11 12 12 12 12 12 13 13 13 13 13 13 13 14 14 14 14 14 14 14 14 14 14 15 15
4 1 4 4 4 7 6 4 6 4 3 0 2 3 4 4 3 3 3 9 9 8 7 8 11 12 12 12 12 12 13 13 12 12 13 13 13 13 14 13 13 13 14 14 14 14 14 14 14
2 4 4 3 6 6 5 3 2 2 3 2 3 4 3 3 1 2 7 9 9 7 6 8 11 12 12 12 12 12 12 12 12 12 12 13 13 13 13 13 13 13 14 14 13 13 13 13 13
3 4 3 2 6 4 4 4 2 1 1 2 3 4 2 4 5 7 8 9 9 7 6 8 10 11 11 11 11 11 12 12 12 12 12 12 12 12 12 12 13 13 14 13 13 13 13 13 13
3 3 3 6 6 3 3 4 1 1 1 2 3 3 1 3 6 6 6 6 8 8 6 7 9 9 10 10 11 11 11 11 11 11 12 12 12 12 12 12 13 13 13 13 13 12 12 13 13
3 3 4 4 3 3 3 2 1 1 1 1 1 4 1 2 4 5 5 6 6 7 6 5 5 6 7 8 9 10 10 10 10 10 10 10 10 11 11 11 12 12 12 12 12 12 12 12 13
3 3 2 2 3 3 2 1 0 0 1 1 2 5 2 1 2 5 6 6 6 5 5 4 4 4 4 5 7 8 9 9 10 9 9 9 9 9 10 10 10 11 12 11 11 11 12 12 12
2 3 4 4 3 2 2 1 3 2 2 2 3 2 1 2 4 6 6 5 5 4 3 3 3 3 3 4 5 6 7 9 9 8 9 8 5 5 6 8 9 10 10 11 11 11 11 11 11
2 4 6 2 1 1 1 1 1 2 2 3 4 5 4 4 5 6 6 5 4 3 2 2 2 2 3 4 3 3 4 4 5 5 5 4 4 4 6 7 8 9 9 9 10 10 9 7 5
2 5 3 2 1 1 1 1 1 2 1 1 1 1 2 2 3 4 5 5 4 4 3 2 2 2 2 2 3 2 2 3 4 5 5 4 3 3 4 3 4 5 6 4 5 6 4 4 4
1 3 2 2 2 2 1 1 1 1 3 2 3 4 2 1 1 3 3 4 3 3 2 2 2 2 2 2 3 3 3 2 3 4 6 5 3 4 4 3 3 3 2 3 3 3 4 5 4
4 3 3 3 2 1 1 1 1 2 2 0 3 3 3 2 2 1 2 3 4 3 3 3 2 2 2 2 2 3 3 3 4 4 4 5 4 5 4 3 3 3 3 3 3 4 5 5 5
3 3 3 3 3 2 1 2 0 4 1 1 2 3 3 3 2 1 1 2 2 3 3 3 2 2 2 2 1 3 3 3 3 4 5 5 4 4 5 4 4 3 3 3 3 4 4 4 4
2 1 3 3 3 2 1 3 3 4 1 2 2 3 2 3 2 2 2 3 3 3 3 3 3 2 2 2 2 2 3 4 3 3 5 5 5 5 5 5 4 3 3 4 4 4 4 4 4
1 0 2 3 1 2 2 6 5 3 2 2 3 3 2 2 3 2 2 2 2 2 2 3 3 2 2 2 2 1 3 4 3 3 4 5 6 5 5 5 4 4 4 4 4 4 4 4 4
1 2 4 4 1 1 2 6 5 2 2 3 3 3 3 2 2 2 2 2 2 3 2 2 2 3 2 2 2 1 2 3 3 3 3 4 5 5 5 5 4 5 4 4 4 4 4 5 4
3 3 4 5 2 1 3 6 6 2 2 3 4 3 3 3 4 3 2 2 2 3 2 3 3 3 2 2 1 1 1 2 3 3 3 5 5 5 4 4 5 5 5 4 4 5 4 4 4
3 3 5 6 3 2 4 7 8 4 2 3 3 3 3 4 4 3 2 2 2 2 2 3 3 3 2 2 2 2 1 1 2 2 4 4 5 6 5 4 5 5 5 5 6 5 5 4 4
2 3 4 4 3 2 4 8 7 3 3 4 4 4 4 3 3 3 2 2 3 3 3 3 4 3 3 3 2 2 2 1 2 2 3 5 5 6 5 6 6 6 5 6 6 5 4 3 3
4 4 4 4 5 2 2 6 4 3 2 2 2 2 2 3 3 3 3 2 2 2 3 3 3 4 3 3 2 1 1 1 1 1 2 3 5 6 6 6 6 6 6 6 6 6 6 5 2
5 4 4 4 1 3 1 4 5 4 3 3 3 3 3 3 3 3 3 3 3 3 3 3 3 3 3 4 4 4 3 2 2 2 2 3 4 6 6 6 6 7 6 6 6 5 4 6 4
4 5 4 3 2 3 2 3 7 2 3 4 4 4 4 4 3 3 3 4 3 2 2 2 2 2 3 4 5 5 3 1 1 1 2 2 3 4 5 5 6 7 6 7 7 5 5 5 5
3 3 2 2 2 3 4 3 6 2 4 4 3 4 4 4 4 3 2 1 1 1 1 2 2 2 2 4 4 5 4 3 3 2 3 2 2 2 4 5 6 7 6 7 7 6 7 5 5
4 4 3 4 2 5 2 2 6 4 3 2 3 4 5 4 3 3 2 1 1 1 1 2 2 2 2 3 4 5 5 5 5 4 4 3 2 2 3 4 5 6 6 6 6 6 6 6 6
1 3 3 3 4 4 2 5 5 3 2 3 3 3 4 5 4 3 2 2 2 2 1 2 2 2 2 3 4 4 4 3 3 3 3 3 3 3 3 4 4 6 7 7 6 5 5 5 5
0 1 2 2 1 2 5 4 6 4 6 6 7 7 7 6 5 5 3 2 2 2 2 2 2 2 2 3 3 3 4 3 3 3 2 2 2 2 3 4 4 5 6 7 7 5 6 5 5
1 2 2 2 1 3 5 4 4 5 6 7 7 7 7 7 7 6 4 3 2 2 2 1 2 2 3 3 3 3 3 4 3 3 3 2 2 2 3 4 4 5 5 6 6 5 5 6 5
2 1 1 1 2 3 3 6 2 3 4 5 6 6 6 6 6 6 5 4 3 2 2 1 2 2 1 2 2 2 2 2 3 3 3 2 2 3 3 4 4 5 5 5 6 6 6 6 5
2 3 2 2 3 3 3 7 2 2 4 4 6 6 6 6 6 5 5 5 4 3 2 2 2 1 1 1 1 2 2 2 2 2 2 2 2 3 3 4 5 5 5 5 6 6 6 7 7
Wind_Direction
325 331 48 56 59 61 225 246 240 252 263 255 93 112 120 114 129 144 112 118 123 140 146 145 140 135 130 129 129 128 126 124 122 120 119 118 117 116 114 113 112 109 108 106 104 103 101 101 100
328 341 55 65 106 181 247 243 238 236 229 224 56 83 85 76 68 98 102 128 132 138 143 144 139 137 133 130 129 131 129 127 124 122 119 119 118 117 116 114 113 112 109 107 105 104 102 100 97
324 37 88 94 157 194 214 229 226 255 293 2 60 52 93 101 94 109 140 137 129 131 139 142 138 137 134 132 128 128 130 128 127 124 120 117 117 118 118 115 113 112 111 109 107 105 103 100 95
41 49 62 111 214 221 211 237 235 286 337 9 92 70 62 58 86 117 130 132 127 126 131 140 137 137 135 133 131 130 128 131 128 126 123 119 117 116 118 117 114 112 112 111 110 107 104 99 95
65 86 102 225 231 239 246 283 283 284 303 10 75 94 57 11 66 102 122 131 130 126 128 138 136 137 136 136 136 133 131 129 132 130 126 121 119 118 118 120 119 116 115 113 111 109 105 100 99
68 85 142 219 233 249 265 273 279 278 285 9 67 97 95 59 78 94 108 125 132 130 127 137 133 134 138 139 137 136 132 132 129 133 129 124 122 120 120 119 121 120 119 117 114 109 106 102 100
126 131 189 211 228 244 276 281 183 237 266 324 81 104 90 51 78 100 103 106 114 121 124 126 132 131 133 134 135 133 132 129 130 127 130 126 124 123 123 121 121 122 121 119 115 110 105 103 101
136 127 195 219 209 229 305 321 334 125 238 359 69 118 162 283 77 95 95 94 99 98 106 116 121 127 130 135 135 133 129 126 124 118 120 122 121 122 121 121 122 121 121 120 116 111 108 105 102
93 117 207 212 197 239 343 11 336 336 68 34 36 79 128 116 102 98 91 79 87 87 83 95 99 118 129 137 134 130 129 127 123 119 114 118 121 120 121 121 121 123 123 124 120 114 109 104 100
108 183 213 203 177 208 315 346 322 17 21 15 15 20 55 83 106 112 115 119 120 124 114 106 104 111 138 142 134 136 133 134 129 129 120 120 123 121 121 120 120 119 119 121 118 112 108 100 96
160 199 209 253 261 242 267 312 1 125 263 193 124 14 65 81 109 124 135 145 153 159 149 133 128 122 134 142 144 142 137 138 135 135 132 123 123 120 116 120 118 115 111 112 112 105 101 101 103
224 239 216 256 312 335 292 276 18 183 224 217 167 151 121 133 157 162 160 155 149 153 159 155 144 137 135 144 156 156 150 149 150 149 144 135 136 133 134 130 130 122 117 116 116 113 105 106 106
245 257 258 269 305 313 0 322 234 286 275 207 136 138 156 201 231 220 169 157 154 164 175 170 160 153 150 143 170 164 163 163 159 157 153 146 144 149 146 143 138 133 129 128 128 121 116 112 109
245 251 274 276 276 283 231 293 279 270 264 124 143 170 185 192 207 249 177 160 166 174 181 183 179 173 164 155 172 174 167 162 156 161 161 155 151 156 153 149 147 145 143 138 134 133 127 122 117
277 296 306 280 259 245 153 302 247 250 178 179 196 204 208 207 202 198 210 190 180 184 182 184 181 172 167 167 169 173 169 162 161 164 163 160 157 160 159 154 153 155 144 134 123 121 117 117 113
346 159 261 281 261 259 160 251 261 241 171 205 217 221 219 220 223 215 222 206 183 168 175 188 180 172 175 183 171 172 172 162 163 163 163 162 160 157 159 156 158 153 144 139 135 133 124 122 120
19 217 235 282 259 212 177 249 270 239 183 225 232 222 219 240 261 253 249 217 184 175 169 179 174 171 173 171 161 153 168 162 164 163 163 164 158 154 161 161 157 151 146 143 146 141 137 136 130
240 230 239 252 271 269 244 259 277 255 209 234 243 237 226 236 254 253 245 226 188 178 175 173 175 173 163 148 130 124 135 160 162 165 166 166 160 152 156 158 154 150 148 149 149 145 133 137 137
250 237 254 262 270 268 247 267 276 274 249 249 257 250 242 245 259 257 245 226 190 177 173 174 177 181 167 163 161 158 172 191 174 170 167 170 166 156 155 161 156 155 157 160 152 143 136 128 133
265 250 264 285 290 266 255 270 273 269 240 235 243 249 256 271 291 276 264 234 198 189 190 185 183 189 189 183 183 184 178 197 194 181 173 173 173 165 162 164 163 162 155 153 154 146 142 145 151
273 227 240 266 308 278 269 285 275 280 247 279 283 266 274 260 260 268 271 251 219 207 204 208 197 192 197 179 154 135 103 90 144 188 185 181 178 175 167 169 166 166 163 165 166 161 150 160 175
273 256 264 262 287 281 200 270 276 267 279 298 304 303 293 293 280 264 261 244 224 220 212 206 197 192 192 177 170 166 172 191 211 206 204 195 186 181 173 170 172 168 167 166 171 169 155 158 170
259 282 269 246 225 296 287 227 278 299 272 278 292 304 303 296 285 270 261 245 235 223 211 206 194 195 193 185 179 172 176 200 201 184 177 196 196 180 172 174 176 173 171 170 170 167 161 165 170
297 333 354 47 89 258 237 198 274 262 247 263 282 307 308 304 301 290 282 264 263 234 209 194 193 208 204 189 182 172 175 181 179 177 186 193 196 183 182 182 181 178 175 174 175 176 172 173 169
20 54 23 358 340 254 221 207 254 267 269 262 271 292 312 314 316 314 306 288 283 259 232 206 201 217 217 197 188 181 181 185 190 183 190 190 192 196 197 186 189 183 180 175 172 175 178 175 173
305 122 152 216 238 285 274 233 255 290 337 343 330 332 338 337 327 316 298 273 261 262 247 226 218 226 224 200 193 189 184 187 198 189 188 193 200 203 200 186 193 189 181 178 175 176 180 176 181
81 218 182 155 261 267 261 282 310 353 5 4 2 0 349 340 337 324 311 302 286 259 258 251 231 234 235 211 195 190 186 190 196 190 185 190 198 201 196 194 188 191 186 181 175 179 181 181 187
127 168 90 106 205 263 282 274 282 320 331 344 352 347 339 340 340 337 329 321 310 298 286 283 262 242 236 208 194 190 192 191 194 178 176 192 202 199 199 196 195 188 186 181 179 181 182 182 190
19 30 57 169 207 205 267 273 254 297 317 325 328 331 332 335 337 336 335 324 314 320 316 298 272 262 244 202 194 176 184 181 173 172 179 191 200 197 198 196 195 188 184 182 182 184 181 187 192
168 192 166 180 258 227 232 268 309 331 328 330 329 331 335 336 336 337 336 346 343 332 323 320 313 304 269 220 185 179 170 157 163 174 184 187 200 202 196 195 192 186 184 185 185 186 186 191 195